sat.trackr.live / text

‹ back to catalog

ONEWEB-0044

NORAD 45150 · 2020-008V

PAYLOAD ACTIVE UNKNOWN

§ Identity

Operator
Country
UK
Launch date
2020-02-06
Launch site
TYMSC
Launch vehicle
Mass (kg)
RCS (m²)

Purposes: comms

External: N2YO · Heavens-Above · Gunter

§ Orbital elements

Epoch: 2026-05-25T02:17:57.049152Z

Period
109.89 min
Inclination
87.8859°
Eccentricity
0.0001967
Mean motion
13.10371175 rev/d
Perigee alt
1,220.2 km
Apogee alt
1,223.2 km
Semi-major
7,599.9 km
B*
1.0861e-3
RAAN
40.8619°
Arg perigee
76.2037°
Mean anomaly
283.9309°
Rev number
30,545

§ Raw data

ONEWEB-00441 45150U 20008V   26145.09579918  .00000392  00000+0  10861-2 0  99922 45150  87.8859  40.8619 0001967  76.2037 283.9309 13.10371175305458

JSON: /api/v1/satellites/45150 · /tle

For live sub-satellite position, see the globe view (requires WebGL).

§ Visibility from observer

Set your observer location to see the next 7 days of passes ≥ 10°. The values pass through the URL so the page stays shareable.

No JS? Fill the form by hand. The geolocation button needs JavaScript.